Regional Weather Roundup
Issued by NWS Lake Charles, LA

Home | Current Version | Previous Version | Text Only | Print | Product List | Glossary On
Versions: 1 2 3 4 5 6 7 8 9 10 11 12 13 14 15 16 17 18 19 20 21 22 23 24 25 26 27 28 29 30 31 32 33 34 35 36 37 38 39 40 41 42 43 44 45 46 47 48 49 50
000
ASUS44 KLCH 290310
RWRLCH
RWRLCH
REGIONAL WEATHER ROUNDUP
NATIONAL WEATHER SERVICE LAKE CHARLES LA
900 PM CST FRI NOV 28 2014

Note: "fair" indicates few or no clouds below 12,000 feet with no
significant weather and/or obstructions to visibility.


ACROSS SOUTHEAST TEXAS

CITY           SKY/WX    TMP DP  RH WIND       PRES   REMARKS
BEAUMONT       PTCLDY    57  55  93 SE5       30.18F FOG
BEAUMONT CITY    N/A     56  56  98 SE5       30.19S
ORANGE         CLOUDY   N/A N/A N/A SE3       30.21S
JASPER         CLOUDY    56  54  92 S7        30.19F
$$

ACROSS CENTRAL LOUISIANA

CITY           SKY/WX    TMP DP  RH WIND       PRES   REMARKS
LEESVILLE      CLOUDY    55  52  90 S13       30.18F
FULLERTON      CLOUDY    57  50  77 VRB5      30.17S
ALEXANDRIA INT CLEAR     53  48  83 S8        30.19S
ESLER FIELD    CLEAR     52  46  80 S7        30.20F
DERIDDER       MOCLDY    55  51  89 SE8       30.20F
OAKDALE        CLEAR     50  48  95 CALM      30.21F
OPELOUSAS        N/A     53  47  81 SE12      30.22F
$$

ACROSS SOUTHWEST AND SOUTH CENTRAL LOUISIANA

CITY           SKY/WX    TMP DP  RH WIND       PRES   REMARKS
SULPHUR        CLEAR     55  55  98 SE6       30.21F
LAKE CHARLES   CLEAR     52  51  97 SE6       30.20F
CHENNAULT INT  CLEAR     52  51  97 SE7       30.22S
CAMERON PHI      N/A     61  59  94 SE9       30.23F
DEQUINCY       CLOUDY    54  54 100 SE5       30.20F
JENNINGS         N/A     53  51  94 SE9       30.22F
LAFAYETTE      CLEAR     53  47  79 S5        30.24F
NEW IBERIA     CLEAR     52  47  83 SE9       30.25F
ABBEVILLE        N/A     52  49  89 SE7       30.24F
PATTERSON      CLEAR     50  45  81 SE7       30.28F
SALT POINT       N/A     56  49  77 SE6       30.25F
$$

SELECTED SITES ACROSS THE REGION

CITY           SKY/WX    TMP DP  RH WIND       PRES   REMARKS
HOUSTON BUSH   CLEAR     60  56  86 S5        30.15F
HOUSTON HOBBY  CLEAR     60  58  92 S8        30.15F
GALVESTON      MOCLDY    63  61  93 S10       30.19S
COLLEGE STAT   CLEAR     61  53  75 S12       30.12S
CONROE         CLEAR     56  53  90 S6        30.15F
HUNTSVILLE     CLEAR     60  54  80 S7        30.13S
LUFKIN         CLEAR     59  52  77 S8        30.13F
SHREVEPORT     PTCLDY    55  49  80 S10       30.10F
MONROE         CLEAR     50  39  66 S7        30.18S
NATCHEZ MS     CLEAR     48  34  57 S7        30.23R
BATON ROUGE    CLEAR     49  43  80 SE5       30.26F
N.O. INTL ARPT CLEAR     50  44  80 CALM      30.29S
SLIDELL        CLEAR     42  37  82 CALM      30.29S
$$

MARINE REPORTS

STATION/POSITION TIME  TEMP    WIND        PRES    VSBY  WAVE
                       AIR SEA DIR/SP/G                  HT/PER
                 (UTC) (F)     (DEG/KT/KT) (MB)    (MI)  (FT/S)
BUOY 30 S HIGH I 0300   63 62  150/ 10/ 12 1021.8F         2/ 4
SEA RIM ST PARK  0300   62     160/  8/ 10 1022.8F
PORT ARTHUR      0300      59  150/  3/  5 1022.3F
SABINE PASS N    0300          170/  8/ 10   N/A
TEXAS POINT      NOT AVBL
CALCASIEU PASS   0300   61 60  160/ 12/ 14   N/A
LK CHARLES BEACH 0300   54 58              1022.8F
MARSH ISLAND     NOT AVBL
FRESH WATER LOCK 0300   57 58  110/  7/  9 1023.9F
AMERADA PASS     0300   54 55  120/  4/  7 1024.8S
$$



USA.gov is the U.S. government's official web portal to all federal, state and local government web resources and services.